Jefferson, NC

2:47 AM EST on December 14, 2019 (GMT -0500)
Ashe County

Weather History for KGEV - October, 2019

Change the Weather History Date:

Friday, October 4, 2019

  Actual Average Record
Temperature  
Mean Temperature 71 °F -  
Max Temperature 80 °F 69 °F 82 °F (1986)
Min Temperature 62 °F 42 °F 22 °F (1974)
Cooling Degree Days 6    
Growing Degree Days 21 (Base 50)    
Moisture  
Dew Point 53 °F    
Average Humidity 54    
Maximum Humidity 80    
Minimum Humidity 26    
Precipitation  
Precipitation 0.00 in - - ()
Sea Level Pressure  
Sea Level Pressure 30.19 in    
Wind  
Wind Speed 5 mph ()    
Max Wind Speed 12 mph    
Max Gust Speed 16 mph    
Visibility 10.0 miles    
Events      
Averages and records for this station are not official NWS values.
T = Trace of Precipitation, MM = Missing Value Source: Averaged Metar Reports

Daily Weather History Graph

Daily Weather History Graph

Search for Another Location

Airport or City:

Astronomy

Oct. 04, 2019 Rise Set
Actual Time 7:23 AM EDT 7:05 PM EDT
Civil Twilight 6:57 AM EDT 7:30 PM EDT
Nautical Twilight 6:27 AM EDT 8:00 PM EDT
Astronomical Twilight 5:57 AM EDT 8:30 PM EDT
Moon 1:44 PM EDT (10/4) 11:42 PM EDT (10/4)
Length of Visible Light 12h 33m
Length of Day
11h 41m
Waxing Crescent, 39% of the Moon is Illuminated
Oct 4
Waxing Crescent
Oct 5
First Quarter
Oct 13
Full
Oct 21
Last Quarter
Oct 27
New

Hourly Weather History & Observations

Time (EDT) Temp. Dew Point Humidity Pressure Visibility Wind Dir Wind Speed Gust Speed Precip Events Conditions
12:15 AM 74.5 °F 56.8 °F 54% 30.18 in 10.0 mi West 10.4 mph - N/A   Clear
12:35 AM 74.3 °F 56.5 °F 54% 30.17 in 10.0 mi West 9.2 mph - N/A   Clear
12:55 AM 73.2 °F 56.3 °F 55% 30.17 in 10.0 mi West 5.8 mph - N/A   Clear
1:15 AM 69.1 °F 57.2 °F 66% 30.17 in 10.0 mi Calm Calm - N/A   Clear
1:35 AM 70.5 °F 56.5 °F 61% 30.17 in 10.0 mi West 5.8 mph - N/A   Clear
1:55 AM 69.1 °F 56.8 °F 65% 30.17 in 10.0 mi Calm Calm - N/A   Clear
2:15 AM 69.8 °F 56.3 °F 62% 30.17 in 10.0 mi Calm Calm - N/A   Clear
2:35 AM 70.3 °F 56.5 °F 61% 30.17 in 10.0 mi West 8.1 mph - N/A   Clear
2:55 AM 72.5 °F 56.3 °F 57% 30.17 in 10.0 mi West 8.1 mph - N/A   Clear
3:15 AM 70.9 °F 56.3 °F 60% 30.16 in 10.0 mi WSW 4.6 mph - N/A   Clear
3:35 AM 67.5 °F 56.5 °F 68% 30.16 in 10.0 mi WNW 3.5 mph - N/A   Clear
3:55 AM 68.4 °F 56.7 °F 66% 30.16 in 10.0 mi Calm Calm - N/A   Clear
4:15 AM 66.7 °F 56.5 °F 70% 30.17 in 10.0 mi NW 3.5 mph - N/A   Clear
4:35 AM 65.7 °F 56.7 °F 73% 30.17 in 10.0 mi Calm Calm - N/A   Clear
4:55 AM 69.3 °F 56.5 °F 64% 30.17 in 10.0 mi WNW 6.9 mph - N/A   Clear
5:15 AM 70.0 °F 56.3 °F 62% 30.17 in 10.0 mi WNW 4.6 mph - N/A   Clear
5:35 AM 69.8 °F 56.3 °F 62% 30.17 in 10.0 mi Calm Calm - N/A   Clear
5:55 AM 67.1 °F 56.3 °F 68% 30.17 in 10.0 mi Calm Calm - N/A   Clear
6:15 AM 67.3 °F 56.3 °F 68% 30.18 in 10.0 mi NW 3.5 mph - N/A   Clear
6:35 AM 66.4 °F 56.5 °F 70% 30.18 in 10.0 mi Calm Calm - N/A   Clear
6:55 AM 66.6 °F 57.4 °F 72% 30.19 in 10.0 mi Calm Calm - N/A   Clear
7:15 AM 66.0 °F 57.6 °F 74% 30.18 in 10.0 mi Calm Calm - N/A   Clear
7:35 AM 65.1 °F 58.3 °F 78% 30.19 in 10.0 mi Calm Calm - N/A   Clear
7:55 AM 65.8 °F 59.5 °F 80% 30.19 in 10.0 mi NNW 4.6 mph - N/A   Clear
8:15 AM 66.7 °F 60.1 °F 79% 30.19 in 10.0 mi NNW 4.6 mph - N/A   Clear
8:35 AM 67.3 °F 60.4 °F 79% 30.19 in 10.0 mi NNW 8.1 mph - N/A   Clear
8:55 AM 68.0 °F 61.0 °F 78% 30.20 in 10.0 mi NW 11.5 mph 16.1 mph N/A   Clear
9:15 AM 68.2 °F 61.2 °F 78% 30.20 in 10.0 mi NW 9.2 mph 16.1 mph N/A   Clear
9:35 AM 69.1 °F 61.3 °F 76% 30.20 in 10.0 mi NW 9.2 mph - N/A   Clear
9:55 AM 70.7 °F 61.7 °F 73% 30.20 in 10.0 mi NW 9.2 mph 16.1 mph N/A   Clear
10:15 AM 71.6 °F 61.7 °F 71% 30.20 in 10.0 mi NW 9.2 mph 16.1 mph N/A   Clear
10:35 AM 73.0 °F 62.1 °F 68% 30.20 in 10.0 mi WNW 6.9 mph - N/A   Clear
11:15 AM 75.0 °F 62.2 °F 64% 30.20 in 10.0 mi NW 8.1 mph - N/A   Clear
11:35 AM 75.9 °F 62.2 °F 62% 30.20 in 10.0 mi North 6.9 mph - N/A   Clear
11:55 AM 77.2 °F 60.3 °F 56% 30.20 in 10.0 mi NW 9.2 mph - N/A   Clear
12:15 PM 77.4 °F 59.0 °F 53% 30.20 in 10.0 mi NNW 11.5 mph 16.1 mph N/A   Clear
12:35 PM 78.1 °F 57.4 °F 49% 30.20 in 10.0 mi WNW 6.9 mph - N/A   Clear
12:55 PM 77.9 °F 50.9 °F 39% 30.19 in 10.0 mi WNW 8.1 mph 16.1 mph N/A   Clear
1:15 PM 79.7 °F 46.0 °F 30% 30.19 in 10.0 mi WNW 9.2 mph - N/A   Clear
1:35 PM 80.1 °F 42.6 °F 26% 30.19 in 10.0 mi NW 9.2 mph - N/A   Clear
1:55 PM 80.1 °F 41.9 °F 26% 30.18 in 10.0 mi NW 8.1 mph - N/A   Clear
2:15 PM 79.5 °F 45.5 °F 30% 30.18 in 10.0 mi NW 5.8 mph - N/A   Clear
2:35 PM 80.1 °F 46.6 °F 31% 30.17 in 10.0 mi WNW 6.9 mph - N/A   Scattered Clouds
2:55 PM 79.5 °F 46.4 °F 31% 30.17 in 10.0 mi WNW 6.9 mph - N/A   Clear
3:15 PM 79.7 °F 50.5 °F 36% 30.17 in 10.0 mi NNW 6.9 mph - N/A   Clear
3:35 PM 79.7 °F 51.3 °F 37% 30.16 in 10.0 mi West 4.6 mph - N/A   Scattered Clouds
3:55 PM 78.8 °F 50.9 °F 38% 30.16 in 10.0 mi NNW 8.1 mph - N/A   Scattered Clouds
4:15 PM 78.8 °F 50.4 °F 37% 30.16 in 10.0 mi WNW 5.8 mph - N/A   Clear
4:35 PM 78.4 °F 51.3 °F 39% 30.16 in 10.0 mi WNW 6.9 mph - N/A   Scattered Clouds
4:55 PM 78.4 °F 51.4 °F 39% 30.17 in 10.0 mi WNW 6.9 mph - N/A   Scattered Clouds
5:15 PM 77.5 °F 50.0 °F 38% 30.17 in 10.0 mi WNW 6.9 mph - N/A   Clear
5:35 PM 77.0 °F 48.6 °F 37% 30.17 in 10.0 mi NW 4.6 mph - N/A   Clear
5:55 PM 76.3 °F 48.6 °F 38% 30.17 in 10.0 mi NNW 3.5 mph - N/A   Clear
6:15 PM 75.2 °F 48.0 °F 38% 30.18 in 10.0 mi NNW 3.5 mph - N/A   Clear
6:35 PM 73.6 °F 48.2 °F 41% 30.18 in 10.0 mi NW 6.9 mph - N/A   Clear
6:55 PM 71.6 °F 46.0 °F 40% 30.19 in 10.0 mi NNW 5.8 mph - N/A   Clear
7:15 PM 70.5 °F 46.4 °F 42% 30.19 in 10.0 mi NNW 8.1 mph - N/A   Clear
7:35 PM 69.8 °F 46.0 °F 43% 30.20 in 10.0 mi NW 5.8 mph - N/A   Clear
7:55 PM 69.1 °F 45.5 °F 43% 30.20 in 10.0 mi North 3.5 mph - N/A   Clear
8:15 PM 68.4 °F 45.7 °F 44% 30.20 in 10.0 mi NNW 5.8 mph - N/A   Clear
8:35 PM 68.0 °F 45.5 °F 44% 30.20 in 10.0 mi NNW 4.6 mph - N/A   Clear
8:55 PM 67.1 °F 45.0 °F 45% 30.21 in 10.0 mi NNW 4.6 mph - N/A   Clear
9:15 PM 65.8 °F 44.1 °F 45% 30.22 in 10.0 mi NNE 3.5 mph - N/A   Clear
9:35 PM 65.8 °F 43.9 °F 45% 30.23 in 10.0 mi North 3.5 mph - N/A   Clear
9:55 PM 64.6 °F 43.0 °F 45% 30.23 in 10.0 mi Calm Calm - N/A   Clear
10:15 PM 64.4 °F 42.8 °F 45% 30.24 in 10.0 mi NNE 3.5 mph - N/A   Clear
10:35 PM 64.2 °F 42.8 °F 46% 30.24 in 10.0 mi North 3.5 mph - N/A   Scattered Clouds
10:55 PM 63.5 °F 42.4 °F 46% 30.25 in 10.0 mi NE 4.6 mph - N/A   Scattered Clouds
11:15 PM 63.5 °F 43.0 °F 47% 30.26 in 10.0 mi NE 3.5 mph - N/A   Mostly Cloudy
11:35 PM 62.6 °F 43.0 °F 49% 30.26 in 10.0 mi NE 4.6 mph - N/A   Mostly Cloudy
11:55 PM 62.6 °F 42.8 °F 48% 30.26 in 10.0 mi NE 4.6 mph - N/A   Mostly Cloudy